TimeEDT,TemperatureF,Dew PointF,Humidity,Sea Level PressureIn,VisibilityMPH,Wind Direction,Wind SpeedMPH,Gust SpeedMPH,PrecipitationIn,Events,Conditions,WindDirDegrees,DateUTC
12:53 AM,81.0,73.0,77,30.06,10.0,North,3.5,-,N/A,,Clear,360,2013-05-25 04:53:00
1:53 AM,81.0,73.9,79,30.06,10.0,North,3.5,-,N/A,,Clear,10,2013-05-25 05:53:00
2:53 AM,81.0,73.9,79,30.05,10.0,Calm,Calm,-,N/A,,Mostly Cloudy,0,2013-05-25 06:53:00
3:07 AM,80.6,73.4,79,30.05,10.0,Calm,Calm,-,N/A,,Mostly Cloudy,0,2013-05-25 07:07:00
3:34 AM,80.6,73.4,79,30.04,10.0,North,3.5,-,N/A,,Scattered Clouds,360,2013-05-25 07:34:00
3:53 AM,81.0,75.0,82,30.04,10.0,Calm,Calm,-,N/A,,Clear,0,2013-05-25 07:53:00
4:53 AM,80.1,75.0,85,30.04,10.0,NNW,3.5,-,N/A,,Partly Cloudy,330,2013-05-25 08:53:00
5:09 AM,80.6,75.2,84,30.04,10.0,Calm,Calm,-,N/A,,Mostly Cloudy,0,2013-05-25 09:09:00
5:27 AM,80.6,75.2,84,30.04,10.0,Calm,Calm,-,N/A,,Partly Cloudy,0,2013-05-25 09:27:00
5:53 AM,80.1,75.0,85,30.04,10.0,Calm,Calm,-,N/A,,Clear,0,2013-05-25 09:53:00
6:53 AM,79.0,75.0,88,30.06,10.0,Calm,Calm,-,N/A,,Partly Cloudy,0,2013-05-25 10:53:00
7:53 AM,82.9,73.0,72,30.07,10.0,ENE,4.6,-,N/A,,Clear,70,2013-05-25 11:53:00
8:53 AM,84.9,73.0,67,30.08,10.0,East,5.8,-,N/A,,Clear,80,2013-05-25 12:53:00
9:53 AM,86.0,71.1,61,30.10,10.0,ESE,6.9,-,N/A,,Clear,110,2013-05-25 13:53:00
10:53 AM,87.1,70.0,57,30.12,10.0,ESE,9.2,-,N/A,,Clear,110,2013-05-25 14:53:00
11:53 AM,88.0,73.0,61,30.12,10.0,ESE,11.5,-,N/A,,Clear,120,2013-05-25 15:53:00
12:53 PM,88.0,73.0,61,30.12,10.0,ESE,11.5,-,N/A,,Clear,110,2013-05-25 16:53:00
1:53 PM,81.0,72.0,74,30.12,3.0,East,8.1,-,0.08,Rain,Heavy Rain,100,2013-05-25 17:53:00
2:53 PM,87.1,73.9,65,30.10,10.0,East,15.0,18.4,0.03,,Partly Cloudy,100,2013-05-25 18:53:00
3:53 PM,87.1,73.9,65,30.09,10.0,ESE,15.0,-,N/A,,Clear,120,2013-05-25 19:53:00
4:53 PM,86.0,73.0,65,30.07,10.0,East,18.4,-,N/A,,Partly Cloudy,100,2013-05-25 20:53:00
5:53 PM,84.0,72.0,67,30.07,10.0,East,20.7,26.5,N/A,,Scattered Clouds,100,2013-05-25 21:53:00
6:53 PM,82.9,72.0,69,30.08,10.0,ENE,11.5,19.6,N/A,,Scattered Clouds,70,2013-05-25 22:53:00
7:53 PM,82.0,66.0,58,30.08,10.0,East,9.2,-,N/A,,Overcast,80,2013-05-25 23:53:00
8:53 PM,82.0,70.0,67,30.08,10.0,East,11.5,17.3,N/A,,Mostly Cloudy,80,2013-05-26 00:53:00
9:53 PM,82.0,69.1,65,30.10,10.0,East,11.5,21.9,N/A,,Partly Cloudy,80,2013-05-26 01:53:00
10:53 PM,82.0,68.0,62,30.12,10.0,ENE,16.1,23.0,N/A,,Clear,70,2013-05-26 02:53:00
11:53 PM,81.0,66.9,62,30.13,10.0,East,12.7,21.9,N/A,,Clear,80,2013-05-26 03:53:00